| time (UTC) | temp C | wind direction | speed KPH | gust KPH | rain 1hr cm | rain 24hr cm | rain mn cm | humidity % | barometer mb |
| 20260502123019 | 4 | 58 | 3.2 | 4.8 | 0.00 | 0.00 | 0.00 | 72 | 1015.7 |
| 20260502122025 | 4 | 28 | 1.6 | 3.2 | 0.00 | 0.00 | 0.00 | 72 | 1015.8 |
| 20260502121033 | 4 | 0.0 | 0.0 | 0.00 | 0.00 | 0.00 | 70 | 1015.8 | |
| 20260502115032 | 5 | 84 | 1.6 | 4.8 | 0.00 | 0.00 | 0.00 | 69 | 1015.8 |
| 20260502114033 | 5 | 63 | 3.2 | 4.8 | 0.00 | 0.00 | 0.00 | 70 | 1015.7 |
| 20260502113027 | 5 | 349 | 3.2 | 4.8 | 0.00 | 0.00 | 0.00 | 70 | 1015.9 |
| 20260502112022 | 5 | 10 | 3.2 | 4.8 | 0.00 | 0.00 | 0.00 | 70 | 1015.9 |
| 20260502111020 | 5 | 326 | 3.2 | 4.8 | 0.00 | 0.00 | 0.00 | 70 | 1015.9 |
| 20260502110019 | 5 | 57 | 1.6 | 4.8 | 0.00 | 0.00 | 0.00 | 69 | 1015.9 |
| 20260502105022 | 5 | 23 | 3.2 | 6.4 | 0.00 | 0.00 | 0.00 | 70 | 1015.9 |
| 20260502104022 | 5 | 51 | 3.2 | 4.8 | 0.00 | 0.00 | 0.00 | 71 | 1015.9 |
| 20260502103018 | 5 | 36 | 1.6 | 4.8 | 0.00 | 0.00 | 0.00 | 71 | 1015.8 |
| 20260502102020 | 5 | 234 | 0.0 | 3.2 | 0.00 | 0.00 | 0.00 | 70 | 1015.6 |
| 20260502101020 | 5 | 284 | 3.2 | 3.2 | 0.00 | 0.00 | 0.00 | 69 | 1015.6 |
| 20260502091028 | 5 | 0.0 | 0.0 | 0.00 | 0.00 | 0.00 | 69 | 1015.6 | |
| 20260502071055 | 7 | 182 | 3.2 | 4.8 | 0.00 | 0.00 | 0.00 | 63 | 1015.9 |
| 20260502070019 | 7 | 44 | 3.2 | 4.8 | 0.00 | 0.00 | 0.00 | 63 | 1016.0 |
| 20260502065033 | 7 | 162 | 1.6 | 3.2 | 0.00 | 0.00 | 0.00 | 64 | 1016.0 |
| 20260502064033 | 8 | 54 | 4.8 | 6.4 | 0.00 | 0.00 | 0.00 | 63 | 1015.8 |
| 20260502063040 | 7 | 321 | 3.2 | 4.8 | 0.00 | 0.00 | 0.00 | 62 | 1016.2 |
| 20260502062018 | 8 | 196 | 3.2 | 3.2 | 0.00 | 0.00 | 0.00 | 62 | 1015.8 |
| 20260502061031 | 8 | 180 | 1.6 | 4.8 | 0.00 | 0.00 | 0.00 | 59 | 1015.8 |
| 20260502060041 | 9 | 75 | 3.2 | 4.8 | 0.00 | 0.00 | 0.00 | 58 | 1015.7 |
| 20260502055024 | 8 | 66 | 4.8 | 6.4 | 0.00 | 0.00 | 0.00 | 58 | 1015.8 |
| 20260502054023 | 8 | 9 | 3.2 | 3.2 | 0.00 | 0.00 | 0.00 | 58 | 1015.7 |
| 20260502053046 | 8 | 0.0 | 0.0 | 0.00 | 0.00 | 0.00 | 56 | 1015.6 | |
| 20260502052023 | 8 | 0.0 | 0.0 | 0.00 | 0.00 | 0.00 | 55 | 1015.5 | |
| 20260502051028 | 9 | 0.0 | 0.0 | 0.00 | 0.00 | 0.00 | 55 | 1015.6 | |
| 20260502050020 | 10 | 135 | 0.0 | 3.2 | 0.00 | 0.00 | 0.00 | 53 | 1015.6 |
| 20260502045026 | 11 | 0.0 | 0.0 | 0.00 | 0.00 | 0.00 | 51 | 1015.7 | |
| 20260502044052 | 11 | 96 | 1.6 | 4.8 | 0.00 | 0.00 | 0.00 | 48 | 1015.6 |
| 20260502043017 | 11 | 28 | 3.2 | 3.2 | 0.00 | 0.00 | 0.00 | 47 | 1015.4 |
| 20260502042018 | 12 | 18 | 3.2 | 4.8 | 0.00 | 0.00 | 0.00 | 45 | 1015.3 |
| 20260502041022 | 12 | 6 | 3.2 | 4.8 | 0.00 | 0.00 | 0.00 | 42 | 1015.3 |
| 20260502040017 | 12 | 19 | 3.2 | 6.4 | 0.00 | 0.00 | 0.00 | 42 | 1015.2 |
| 20260502035042 | 12 | 312 | 3.2 | 4.8 | 0.00 | 0.00 | 0.00 | 41 | 1015.1 |
| 20260502034031 | 13 | 334 | 4.8 | 6.4 | 0.00 | 0.00 | 0.00 | 40 | 1015.0 |
| 20260502033039 | 13 | 346 | 4.8 | 8.0 | 0.00 | 0.00 | 0.00 | 40 | 1014.8 |
| 20260502032030 | 13 | 18 | 4.8 | 6.4 | 0.00 | 0.00 | 0.00 | 40 | 1014.7 |
| 20260502031031 | 13 | 9 | 6.4 | 8.0 | 0.00 | 0.00 | 0.00 | 40 | 1014.6 |
| 20260502030022 | 14 | 11 | 4.8 | 6.4 | 0.00 | 0.00 | 0.00 | 40 | 1014.4 |
| 20260502025022 | 14 | 17 | 4.8 | 6.4 | 0.00 | 0.00 | 0.00 | 40 | 1014.3 |
| 20260502024025 | 15 | 353 | 4.8 | 6.4 | 0.00 | 0.00 | 0.00 | 39 | 1014.2 |
| 20260502023030 | 15 | 0 | 6.4 | 8.0 | 0.00 | 0.00 | 0.00 | 39 | 1014.2 |
| 20260502022033 | 15 | 328 | 6.4 | 9.7 | 0.00 | 0.00 | 0.00 | 39 | 1014.1 |
| 20260502021034 | 16 | 337 | 8.0 | 12.9 | 0.00 | 0.00 | 0.00 | 38 | 1014.0 |
| 20260502020034 | 17 | 321 | 8.0 | 12.9 | 0.00 | 0.00 | 0.00 | 38 | 1014.0 |
| 20260502015036 | 17 | 316 | 9.7 | 14.5 | 0.00 | 0.00 | 0.00 | 37 | 1013.8 |
| 20260502014017 | 18 | 315 | 8.0 | 14.5 | 0.00 | 0.00 | 0.00 | 36 | 1013.8 |
| 20260502013032 | 18 | 300 | 12.9 | 19.3 | 0.00 | 0.00 | 0.00 | 36 | 1013.8 |
| 20260502012018 | 18 | 308 | 11.3 | 16.1 | 0.00 | 0.00 | 0.00 | 36 | 1013.6 |
| 20260502011018 | 18 | 281 | 11.3 | 16.1 | 0.00 | 0.00 | 0.00 | 36 | 1013.6 |
| 20260502010033 | 19 | 324 | 9.7 | 16.1 | 0.00 | 0.00 | 0.00 | 36 | 1013.7 |
| 20260502005020 | 19 | 335 | 11.3 | 14.5 | 0.00 | 0.00 | 0.00 | 36 | 1013.6 |
| 20260502004020 | 19 | 328 | 12.9 | 19.3 | 0.00 | 0.00 | 0.00 | 36 | 1013.6 |
| 20260502003040 | 19 | 324 | 14.5 | 19.3 | 0.00 | 0.00 | 0.00 | 35 | 1013.6 |
| 20260502002023 | 20 | 321 | 16.1 | 20.9 | 0.00 | 0.00 | 0.00 | 35 | 1013.7 |
| 20260502001022 | 20 | 319 | 12.9 | 19.3 | 0.00 | 0.00 | 0.00 | 35 | 1013.7 |
| 20260502000058 | 20 | 317 | 9.7 | 17.7 | 0.00 | 0.00 | 0.00 | 35 | 1013.8 |
| 20260501235019 | 20 | 292 | 12.9 | 20.9 | 0.00 | 0.00 | 0.00 | 35 | 1013.7 |
| 20260501234018 | 20 | 315 | 16.1 | 17.7 | 0.00 | 0.00 | 0.00 | 35 | 1013.7 |
| 20260501233021 | 20 | 311 | 14.5 | 20.9 | 0.00 | 0.00 | 0.00 | 35 | 1013.7 |
| 20260501232020 | 20 | 345 | 16.1 | 22.5 | 0.00 | 0.00 | 0.00 | 35 | 1013.6 |
| 20260501231032 | 20 | 294 | 14.5 | 17.7 | 0.00 | 0.00 | 0.00 | 34 | 1013.7 |
| 20260501230018 | 21 | 337 | 14.5 | 24.1 | 0.00 | 0.00 | 0.00 | 33 | 1013.9 |
| 20260501225022 | 21 | 16.1 | 16.1 | 0.00 | 0.00 | 0.00 | 31 | 1013.9 | |
| 20260501224106 | 21 | 12 | 11.3 | 19.3 | 0.00 | 0.00 | 0.00 | 32 | 1014.0 |
| 20260501223030 | 21 | 296 | 11.3 | 12.9 | 0.00 | 0.00 | 0.00 | 32 | 1014.2 |
| 20260501222017 | 21 | 348 | 14.5 | 20.9 | 0.00 | 0.00 | 0.00 | 31 | 1014.1 |
| 20260501221020 | 22 | 299 | 9.7 | 16.1 | 0.00 | 0.00 | 0.00 | 31 | 1014.2 |
| 20260501220025 | 21 | 306 | 11.3 | 17.7 | 0.00 | 0.00 | 0.00 | 32 | 1014.2 |
| 20260501215021 | 21 | 325 | 9.7 | 19.3 | 0.00 | 0.00 | 0.00 | 31 | 1014.3 |
| 20260501214022 | 23 | 327 | 6.4 | 11.3 | 0.00 | 0.00 | 0.00 | 30 | 1014.3 |
| 20260501213021 | 21 | 353 | 9.7 | 12.9 | 0.00 | 0.00 | 0.00 | 32 | 1014.5 |
| 20260501212017 | 21 | 254 | 11.3 | 16.1 | 0.00 | 0.00 | 0.00 | 31 | 1014.5 |
| 20260501211018 | 21 | 300 | 11.3 | 19.3 | 0.00 | 0.00 | 0.00 | 32 | 1014.6 |
| 20260501210019 | 22 | 320 | 9.7 | 16.1 | 0.00 | 0.00 | 0.00 | 31 | 1014.6 |
| 20260501205020 | 22 | 6 | 8.0 | 14.5 | 0.00 | 0.00 | 0.00 | 30 | 1014.7 |
| 20260501204019 | 23 | 299 | 9.7 | 16.1 | 0.00 | 0.00 | 0.00 | 30 | 1014.5 |
| 20260501203026 | 22 | 286 | 6.4 | 12.9 | 0.00 | 0.00 | 0.00 | 31 | 1014.6 |
| 20260501202020 | 21 | 303 | 11.3 | 16.1 | 0.00 | 0.00 | 0.00 | 31 | 1014.6 |
| 20260501201020 | 22 | 301 | 9.7 | 16.1 | 0.00 | 0.00 | 0.00 | 30 | 1014.8 |
| 20260501200017 | 22 | 294 | 6.4 | 11.3 | 0.00 | 0.00 | 0.00 | 31 | 1014.9 |
| 20260501195018 | 21 | 268 | 9.7 | 11.3 | 0.00 | 0.00 | 0.00 | 31 | 1014.7 |
| 20260501194021 | 22 | 344 | 11.3 | 14.5 | 0.00 | 0.00 | 0.00 | 31 | 1014.8 |
| 20260501193035 | 21 | 278 | 9.7 | 14.5 | 0.00 | 0.00 | 0.00 | 31 | 1015.0 |
| 20260501192020 | 22 | 203 | 4.8 | 8.0 | 0.00 | 0.00 | 0.00 | 29 | 1015.1 |
| 20260501191032 | 22 | 246 | 9.7 | 14.5 | 0.00 | 0.00 | 0.00 | 29 | 1015.2 |
| 20260501190025 | 21 | 227 | 6.4 | 9.7 | 0.00 | 0.00 | 0.00 | 30 | 1015.3 |
| 20260501185028 | 20 | 334 | 12.9 | 16.1 | 0.00 | 0.00 | 0.00 | 31 | 1015.4 |
| 20260501184044 | 21 | 45 | 11.3 | 14.5 | 0.00 | 0.00 | 0.00 | 29 | 1015.5 |
| 20260501183042 | 21 | 333 | 8.0 | 12.9 | 0.00 | 0.00 | 0.00 | 30 | 1015.6 |
| 20260501182018 | 21 | 340 | 8.0 | 12.9 | 0.00 | 0.00 | 0.00 | 32 | 1015.7 |
| 20260501181032 | 21 | 130 | 6.4 | 9.7 | 0.00 | 0.00 | 0.00 | 33 | 1015.8 |
| 20260501180034 | 22 | 52 | 11.3 | 17.7 | 0.00 | 0.00 | 0.00 | 33 | 1015.9 |
| 20260501175032 | 21 | 347 | 6.4 | 9.7 | 0.00 | 0.00 | 0.00 | 33 | 1015.9 |
| 20260501174017 | 20 | 264 | 9.7 | 11.3 | 0.00 | 0.00 | 0.00 | 33 | 1016.0 |
| 20260501173034 | 21 | 47 | 6.4 | 9.7 | 0.00 | 0.00 | 0.00 | 32 | 1016.0 |
| 20260501172033 | 20 | 303 | 4.8 | 8.0 | 0.00 | 0.00 | 0.00 | 33 | 1016.0 |
| 20260501171021 | 21 | 90 | 8.0 | 8.0 | 0.00 | 0.00 | 0.00 | 34 | 1016.0 |
| 20260501170021 | 20 | 268 | 6.4 | 8.0 | 0.00 | 0.00 | 0.00 | 34 | 1016.1 |
| 20260501165021 | 20 | 327 | 4.8 | 8.0 | 0.00 | 0.00 | 0.00 | 34 | 1016.0 |
| 20260501164025 | 20 | 353 | 6.4 | 9.7 | 0.00 | 0.00 | 0.00 | 35 | 1016.2 |
| 20260501163046 | 20 | 347 | 4.8 | 8.0 | 0.00 | 0.00 | 0.00 | 36 | 1015.9 |
| 20260501162025 | 19 | 329 | 6.4 | 9.7 | 0.00 | 0.00 | 0.00 | 37 | 1016.0 |
| 20260501161023 | 20 | 341 | 4.8 | 8.0 | 0.00 | 0.00 | 0.00 | 37 | 1016.1 |
| 20260501160044 | 20 | 313 | 4.8 | 6.4 | 0.00 | 0.00 | 0.00 | 37 | 1016.1 |
| 20260501155024 | 20 | 261 | 4.8 | 8.0 | 0.00 | 0.00 | 0.00 | 37 | 1015.8 |
| 20260501154024 | 20 | 209 | 4.8 | 6.4 | 0.00 | 0.00 | 0.00 | 38 | 1016.0 |
| 20260501153027 | 18 | 166 | 4.8 | 6.4 | 0.00 | 0.00 | 0.00 | 39 | 1015.9 |
| 20260501152051 | 18 | 203 | 3.2 | 4.8 | 0.00 | 0.00 | 0.00 | 39 | 1015.9 |
| 20260501151108 | 18 | 131 | 3.2 | 4.8 | 0.00 | 0.00 | 0.00 | 39 | 1015.9 |